Location: Linkenheim
(49.1294°N, 8.4028°E)
Time: 05:30:20
(UTC+00:00)

Daily predictions for brighter satellites

Satellite Brightness Start Highest point End
(mag) Time Altitude Azimuth Time Altitude Azimuth Time Altitude Azimuth
Cosmos 1331 Rocket 4.4 00:06:52 53° WNW 00:06:52 53° WNW 00:12:02 10° NNE
ATLAS 2AS CENTAUR R/B 3.0 00:09:45 42° W 00:11:58 61° NW 00:18:44 10° NE
IDEFIX/ARIANE 42P 4.1 00:11:53 10° NE 00:16:05 25° E 00:16:41 24° ESE
Meteor 1-5 Rocket 4.1 00:15:47 10° NNW 00:20:58 77° WNW 00:20:58 77° WNW
Cosmos 1953 Rocket 4.2 00:18:28 10° N 00:22:18 53° NE 00:22:18 53° NE
Cosmos 1980 Rocket 2.6 00:19:33 10° NW 00:24:20 51° W 00:24:20 51° W
USA 234 4.1 00:20:38 10° E 00:26:52 49° N 00:33:06 10° WNW
Cosmos 44 Rocket 4.1 00:29:47 43° E 00:29:47 43° E 00:34:04 10° NE
COSMOS 2406 4.0 00:32:29 38° ESE 00:32:56 38° ESE 00:38:13 10° NE
Cosmos 1825 Rocket 4.4 00:29:19 10° NNW 00:32:19 42° NNW 00:32:19 42° NNW
Meteor 2-10 4.1 00:30:40 10° NNW 00:36:03 69° W 00:36:03 69° W
Cosmos 2369 3.5 00:30:44 10° NNW 00:36:27 81° WSW 00:36:37 80° SW
Cosmos 1634 Rocket 4.1 00:35:56 53° SE 00:37:05 63° E 00:43:11 10° NNE
Cosmos 724 4.3 00:44:49 63° SSE 00:45:23 67° ESE 00:51:18 10° NE
Cosmos 2084 4.1 00:46:23 51° N 00:46:23 51° N 00:49:50 10° NE
Cosmos 1627 Rocket 4.4 00:41:18 10° NNW 00:47:34 74° W 00:48:29 63° SSW
Spot 1 4.4 00:43:37 10° NNE 00:47:07 62° NNE 00:47:07 62° NNE
Cosmos 1607 4.0 00:47:22 55° SSE 00:48:05 58° ESE 00:54:12 10° NE
Cosmos-2242 3.3 00:52:13 61° NE 00:52:13 61° NE 00:55:50 10° NNE
Cosmos 2360 Rocket 3.6 00:46:48 10° NNW 00:52:04 37° NE 00:57:18 10° ESE
Cosmos 2333 Rocket 2.7 00:47:41 10° NNW 00:53:17 56° NE 00:57:05 21° SE
USA 281 3.3 00:51:27 28° SE 00:55:12 76° ENE 01:01:47 10° NNW
Cosmos 2082 Rocket 2.2 00:59:24 63° WSW 01:00:13 74° WNW 01:05:58 10° NNE
Meteor 2-2 Rocket 4.2 01:02:52 61° SSE 01:03:50 79° E 01:09:29 10° NNE
Cosmos 2279 Rocket 4.0 01:03:59 48° SSE 01:05:44 73° E 01:11:59 10° NNE
Cosmos 2278 4.0 01:01:24 10° NNW 01:07:06 64° ENE 01:11:11 19° SE
Cosmos 2322 Rocket 3.1 01:02:02 10° NNW 01:07:31 48° NE 01:12:58 10° SE
Cosmos 1486 Rocket 4.1 01:02:41 10° NNW 01:07:55 73° ENE 01:09:36 43° SE
Cosmos 2221 3.7 01:07:40 31° ESE 01:08:13 32° E 01:11:54 10° NNE
NPP 4.2 01:03:17 10° NNE 01:08:33 51° E 01:09:56 41° SE
Resurs 1-4 Rocket 4.1 01:05:08 10° NE 01:09:07 21° E 01:12:17 13° SE
NOSS 3-3 (A) 3.8 01:14:12 53° SSE 01:15:01 59° ESE 01:21:02 10° NE
ACS3 Solar Sail 1.9 01:11:09 10° N 01:17:07 63° WNW 01:18:33 49° SW
Cosmos 1777 Rocket 4.0 01:13:16 10° NNW 01:18:34 77° ENE 01:20:41 37° SE
Cosmos 2219 Rocket 3.6 01:16:10 10° NNW 01:21:24 38° NE 01:26:39 10° ESE
SL-16 R/B 2.1 01:16:58 10° NNW 01:22:41 84° WSW 01:24:53 39° SSE
CZ-4C R/B 2.0 01:22:06 51° W 01:22:52 58° NW 01:28:23 10° NE
H-2A R/B 4.2 01:20:06 10° NE 01:23:45 19° E 01:27:26 10° SE
GP-B 3.8 01:19:43 10° NNW 01:23:25 40° WNW 01:23:25 40° WNW
Cosmos 1271 Rocket 3.6 01:27:38 37° E 01:27:38 37° E 01:30:51 10° NNE
Meteor 1-14 Rocket 4.3 01:24:09 10° N 01:29:55 79° ENE 01:32:37 32° SSE
ATLAS 3B R/B 3.9 01:23:58 10° WNW 01:29:23 26° W 01:29:23 26° W
SL-4 R/B 2.8 01:31:35 37° ESE 01:31:35 37° ESE 01:34:00 10° ESE
NOSS 3-3 (C) 3.8 01:30:27 49° S 01:31:45 64° SE 01:37:54 10° NE
USA 267 3.8 01:25:32 10° ENE 01:31:47 45° SE 01:34:01 34° S
Cosmos 2058 Rocket 3.3 01:32:04 52° WNW 01:32:07 52° WNW 01:36:26 10° N
Cosmos 2266 Rocket 4.0 01:29:21 10° N 01:35:31 77° E 01:39:08 26° SSE
Gbstr 26 Del rocket 2.7 01:37:23 65° ESE 01:37:23 65° ESE 01:40:36 10° ESE
Cosmos 1470 2.9 01:33:32 10° N 01:36:16 55° N 01:36:16 55° N
KORONAS-FOTON 4.3 01:38:28 44° NNW 01:38:28 44° NNW 01:41:02 10° N
USA 290 4.3 01:37:48 20° ESE 01:37:55 20° ESE 01:40:21 10° NE
Cosmos 909 Rocket 4.4 01:37:59 33° WSW 01:40:36 54° NW 01:46:57 10° NNE
Cosmos 1536 4.1 01:44:44 10° NNW 01:46:48 25° NW 01:46:48 25° NW
Cosmos 2333 4.4 01:42:27 10° NNW 01:48:08 72° ENE 01:53:49 10° SE
DMSP B5D2-2 4.3 01:45:23 17° SSE 01:49:21 70° ENE 01:54:32 10° N
Cosmos 1812 Rocket 3.6 01:49:34 45° SSE 01:50:47 70° E 01:55:06 10° NNE
Meteor 2-6 Rocket 4.3 01:49:06 42° SW 01:51:06 70° WNW 01:56:59 10° N
NOSS 3-4 (A) 4.1 01:46:15 10° NW 01:52:47 67° NE 02:00:33 10° SE
NOSS 3-4 (C) 4.1 01:46:47 10° NW 01:53:21 67° NE 02:01:06 10° SE
IDEFIX/ARIANE 42P 2.8 01:50:48 10° N 01:55:50 53° WNW 01:57:22 39° WSW
ISS -1.0 01:56:14 10° SE 01:56:14 10° SE 01:56:46 10° ESE
COSMOS 2441 4.3 01:53:07 10° NNE 01:57:56 84° ESE 01:59:44 39° S
Envisat 3.5 01:53:30 10° NNE 01:58:31 56° E 02:01:23 25° S
Aureole 1 Rocket 3.9 01:55:32 10° NNW 01:59:33 53° ENE 02:04:33 10° SE
Cosmos 1707 4.4 02:03:05 14° NW 02:03:05 14° NW 02:04:00 10° NNW
Cosmos 2084 Rocket 3.3 01:58:56 10° NW 02:03:09 86° NE 02:07:24 10° SE
ATLAS 2AS CENTAUR R/B 4.3 01:58:26 10° WNW 02:04:11 27° NNW 02:09:53 10° NE
Iridium 4 Rocket 3.4 02:03:00 29° S 02:05:23 78° E 02:10:30 10° N
MOZ.5/SAFIR/RUBIN 5/SL-8 3.7 02:05:32 37° S 02:07:16 63° WSW 02:11:54 10° NNW
Meteor 1-27 Rocket 4.3 02:03:31 17° S 02:08:00 58° E 02:13:49 10° NNE
H-2A R/B 2.3 02:06:25 24° SSE 02:08:29 68° ENE 02:12:04 10° N
USA 234 3.3 02:03:00 10° ESE 02:09:32 84° NNE 02:16:07 10° NW
Cosmos 1975 2.8 02:07:06 10° NNW 02:10:35 46° W 02:10:35 46° W
Cosmos 44 Rocket 4.3 02:08:21 25° W 02:10:41 39° NW 02:15:34 10° NNE
Cosmos 990 Rocket 3.8 02:06:07 10° NNW 02:11:14 73° WSW 02:15:53 13° SSE
ADEOS II 3.0 02:07:00 10° NNE 02:12:01 45° E 02:16:28 13° S
Cosmos 1763 Rocket 3.5 02:13:16 33° SSW 02:15:43 83° WNW 02:21:03 10° NNE
Cosmos 1238 Rocket 3.1 02:15:06 30° SE 02:16:00 41° E 02:18:51 10° NNE
ALOS 2.6 02:12:05 10° NNE 02:16:37 61° ESE 02:19:31 21° S
COSMOS 2406 3.9 02:14:30 27° WSW 02:17:10 43° NW 02:22:40 10° NNE
MSX 4.5 02:11:54 10° N 02:17:15 41° WNW 02:19:47 27° WSW
COSMOS 2428 4.3 02:15:06 10° NNW 02:20:25 38° NE 02:25:42 10° ESE
CZ-2D R/B 2.3 02:15:25 10° NNE 02:20:40 70° ESE 02:24:32 19° S
SL-16 R/B 3.9 02:15:26 10° SE 02:21:14 41° ENE 02:27:03 10° N
ADEOS Rocket 3.7 02:16:11 10° N 02:23:37 64° WNW 02:28:49 23° SW
Spot 2 4.3 02:23:27 10° SSE 02:28:15 86° WSW 02:33:15 10° NNW
Cosmos 1898 Rocket 4.1 02:24:13 10° NNW 02:29:19 58° ENE 02:34:24 10° SE
Cosmos 1354 Rocket 4.2 02:28:37 10° NNW 02:33:42 49° WSW 02:38:18 12° S
FENGYUN 3A 4.5 02:30:35 10° N 02:35:31 36° WNW 02:38:13 22° WSW
Cosmos 2360 Rocket 2.5 02:30:47 10° NW 02:36:10 46° WSW 02:41:32 10° S
Cosmos 2333 Rocket 3.1 02:32:30 10° NW 02:37:14 28° WSW 02:39:00 23° SW
Alouette 2 Rocket 3.1 02:33:56 10° NNW 02:38:05 82° WSW 02:41:38 10° S
USA 305 3.6 02:38:24 14° NNW 02:38:42 14° NNW 02:39:42 10° NNE
EP 1 4.2 02:37:29 10° NW 02:40:04 87° NE 02:42:53 10° SE
USA 281 4.2 02:38:17 22° SW 02:40:17 25° W 02:45:35 10° NW
Meteor 2-10 Rocket 4.0 02:38:34 10° N 02:43:39 63° ENE 02:48:52 10° SSE
Cosmos 540 Rocket 3.7 02:41:18 24° SW 02:44:17 55° WNW 02:49:22 10° NNE
Cosmos 2221 3.7 02:43:58 22° W 02:45:15 26° WNW 02:48:45 10° NNW
Cosmos 2082 Rocket 4.1 02:41:17 10° W 02:45:19 19° NW 02:49:21 10° N
H-2A R/B 3.9 02:42:00 10° NE 02:45:26 27° E 02:48:49 10° SSE
Cosmos 1553 Rocket 4.5 02:41:25 10° S 02:47:29 62° E 02:53:42 10° NNE
USA 276 3.3 02:50:08 13° SE 02:50:08 13° SE 02:50:27 10° SE
Resurs 1-4 Rocket 2.2 02:44:03 10° N 02:49:19 65° WNW 02:53:20 17° SSW
Cosmos 468 Rocket 4.0 02:46:38 19° SSW 02:50:32 82° WNW 02:55:52 10° NNE
Cosmos 2322 Rocket 2.9 02:46:24 10° NW 02:51:21 33° WSW 02:56:18 10° SSW
BREEZE-M DEB (TANK) 3.1 02:50:12 16° W 02:52:28 81° SSW 03:00:47 10° ESE
DNEPR-1 R/B 4.3 02:49:18 10° NW 02:54:35 58° SW 03:01:01 10° SSE
Cosmos 1766 Rocket 3.7 02:52:59 10° NNW 02:57:13 53° W 03:01:24 10° S
Cosmos 1833 4.3 02:53:58 18° SW 02:58:13 67° WNW 03:03:54 10° NNE
ACS3 Solar Sail 3.7 02:55:32 10° NNW 02:58:23 14° NW 03:01:15 10° W
Cosmos 1271 Rocket 4.3 03:01:02 15° W 03:02:01 16° WNW 03:04:19 10° NNW
H-2A R/B 2.1 02:58:25 10° N 03:03:29 68° WNW 03:08:28 11° SSW
CRYOSAT 2 4.3 02:59:04 10° S 03:03:55 70° W 03:08:49 10° N
Cosmos 2219 Rocket 2.5 03:00:07 10° NW 03:05:25 43° WSW 03:10:42 10° S
Cosmos 2237 Rocket 3.9 03:00:10 10° NNW 03:05:26 37° NE 03:10:40 10° ESE
SL-16 R/B 3.8 03:02:54 10° WNW 03:05:51 15° W 03:06:38 14° WSW
SL-4 R/B 2.9 03:05:08 16° W 03:07:12 24° SW 03:10:18 10° SSE
Meteor 2-11 Rocket 4.4 03:01:55 10° NNW 03:08:02 68° W 03:14:07 10° S
SL-14 R/B 4.0 03:05:09 10° S 03:08:56 53° E 03:12:45 10° NNE
CZ-3 Stage 3 4.4 03:05:05 14° SW 03:11:33 31° SSE 03:32:00 10° ESE
USA 290 3.5 03:10:18 17° WSW 03:11:56 26° WNW 03:14:41 10° N
CZ-4C R/B 4.0 03:08:19 10° WNW 03:12:21 23° NNW 03:17:16 10° NE
ARGOS 3.4 03:09:06 10° NNE 03:14:31 74° ESE 03:19:52 10° S
USA 267 3.4 03:08:30 10° NE 03:15:04 75° NNW 03:21:22 11° WSW
Cosmos 1408 Rocket 4.2 03:11:08 10° N 03:15:24 59° ENE 03:19:36 10° SSE
Cosmos 1745 Rocket 4.4 03:09:57 10° N 03:16:08 66° ENE 03:22:12 10° SSE
METEOR-M 4.1 03:11:47 10° NNE 03:17:07 75° WNW 03:22:25 10° SSW
Gbstr 26 Del rocket 3.8 03:19:43 10° W 03:22:41 23° SW 03:25:42 10° SSE
Cosmos 2322 3.7 03:20:10 10° NNW 03:25:53 76° WSW 03:31:33 10° SSE
NOSS 3 (A) 4.1 03:29:12 10° NW 03:31:31 85° NE 03:34:30 10° SE
ISS -3.2 03:29:12 12° SW 03:32:14 50° SSE 03:35:33 10° ENE
Envisat 4.3 03:33:04 10° N 03:37:06 24° WNW 03:41:06 10° WSW
BREEZE-M DEB (TANK) 2.5 03:31:33 10° WSW 03:37:43 55° SSE 03:40:25 10° E
Meteor 2-4 Rocket 4.2 03:34:53 10° SW 03:39:52 38° WNW 03:44:52 10° N
Cosmos 1461 2.8 03:37:07 10° SW 03:40:49 60° NW 03:44:30 10° NNE
H-2A R/B 4.2 03:42:05 10° WSW 03:42:52 11° W 03:43:39 10° WNW
NOSS 3-4 (A) 4.4 03:37:19 10° NW 03:43:33 37° WSW 03:50:42 10° S
Meteor 1-28 Rocket 3.3 03:40:26 10° SSE 03:43:39 64° ENE 03:46:53 10° N
NOSS 3-4 (C) 4.4 03:37:51 10° NW 03:44:07 37° WSW 03:51:18 10° S
AQUA 3.9 03:40:04 10° N 03:44:42 62° WNW 03:49:18 10° SSW
Cosmos 1066 Rocket 4.4 03:40:06 10° SSW 03:45:16 47° WNW 03:50:27 10° N
NOSS 0 Rocket 3.9 03:40:01 10° NNW 03:46:14 78° WSW 03:52:23 10° SSE
Cosmos 1151 Rocket 2.9 03:44:31 10° SSW 03:48:44 81° W 03:53:00 10° N
Cosmos 1500 Rocket 3.6 03:46:25 10° NNW 03:50:48 68° W 03:55:10 10° S
Cosmos 1842 Rocket 4.4 03:47:06 10° SW 03:50:57 31° WNW 03:54:50 10° N
ADEOS II 3.0 03:46:51 10° N 03:51:24 31° WNW 03:55:56 10° WSW
USA 234 3.8 03:47:02 10° SSE 03:52:59 37° SW 03:58:57 10° WNW
CZ-3 R/B 4.1 03:51:02 10° WSW 04:08:37 26° SSW 04:15:57 10° SSE
